• En España
  • Lista de países
  • Para 7 días
  • Temperatura del agua
  • Mapa Satelital
  • El tiempo en el mapa
  • Informadores
  • user-avatar
    Iniciar sesión

    Tiempo cada hora Ruse

    Hoy, 19 Septiembre, Miércoles

    Tiempo Temperatura Precipitaciones Viento Presión Humedad
    00:00 +18°C° 0 mm 2 mps 761 mmHg 62%
    01:00 +17°C° 0 mm 2 mps 761 mmHg 64%
    02:00 +17°C° 0 mm 2 mps 761 mmHg 65%
    03:00 +16°C° 0 mm 2 mps 761 mmHg 66%
    04:00 +16°C° 0 mm 2 mps 761 mmHg 68%
    05:00 +15°C° 0 mm 1 mps 761 mmHg 70%
    06:00 +16°C° 0 mm 2 mps 761 mmHg 67%
    07:00 +18°C° 0 mm 2 mps 761 mmHg 63%
    08:00 +19°C° 0 mm 2 mps 761 mmHg 60%
    09:00 +21°C° 0 mm 2 mps 761 mmHg 52%
    10:00 +24°C° 0 mm 2 mps 761 mmHg 45%
    11:00 +26°C° 0 mm 3 mps 761 mmHg 37%
    12:00 +27°C° 0 mm 3 mps 761 mmHg 33%
    13:00 +28°C° 0 mm 3 mps 761 mmHg 30%
    14:00 +29°C° 0 mm 3 mps 760 mmHg 27%
    15:00 +29°C° 0 mm 3 mps 760 mmHg 27%
    16:00 +28°C° 0 mm 3 mps 760 mmHg 28%
    17:00 +28°C° 0 mm 3 mps 759 mmHg 29%
    18:00 +26°C° 0 mm 3 mps 760 mmHg 33%
    19:00 +24°C° 0 mm 3 mps 760 mmHg 38%
    20:00 +21°C° 0 mm 2 mps 760 mmHg 43%
    21:00 +20°C° 0 mm 2 mps 760 mmHg 48%
    22:00 +19°C° 0 mm 2 mps 761 mmHg 53%
    23:00 +18°C° 0 mm 2 mps 761 mmHg 58%

    Mañana, 20 Septiembre, Jueves

    Tiempo Temperatura Precipitaciones Viento Presión Humedad
    00:00 +17°C° 0 mm 2 mps 761 mmHg 61%
    01:00 +17°C° 0 mm 2 mps 761 mmHg 64%
    02:00 +16°C° 0 mm 1 mps 761 mmHg 67%
    03:00 +16°C° 0 mm 1 mps 760 mmHg 69%
    04:00 +15°C° 0 mm 1 mps 760 mmHg 71%
    05:00 +15°C° 0 mm 1 mps 760 mmHg 72%
    06:00 +16°C° 0 mm 1 mps 760 mmHg 68%
    07:00 +18°C° 0 mm 1 mps 760 mmHg 64%
    08:00 +20°C° 0 mm 1 mps 761 mmHg 59%
    09:00 +21°C° 0 mm 2 mps 760 mmHg 52%
    10:00 +24°C° 0 mm 2 mps 760 mmHg 44%
    11:00 +26°C° 0 mm 2 mps 760 mmHg 37%
    12:00 +27°C° 0 mm 2 mps 760 mmHg 34%
    13:00 +28°C° 0 mm 2 mps 759 mmHg 32%
    14:00 +30°C° 0 mm 2 mps 759 mmHg 29%
    15:00 +29°C° 0 mm 2 mps 759 mmHg 30%
    16:00 +29°C° 0 mm 2 mps 759 mmHg 32%
    17:00 +29°C° 0 mm 2 mps 758 mmHg 33%
    18:00 +27°C° 0 mm 2 mps 758 mmHg 38%
    19:00 +25°C° 0 mm 2 mps 759 mmHg 43%
    20:00 +23°C° 0 mm 2 mps 759 mmHg 48%
    21:00 +21°C° 0 mm 2 mps 759 mmHg 52%
    22:00 +21°C° 0 mm 2 mps 759 mmHg 55%
    23:00 +20°C° 0 mm 2 mps 759 mmHg 59%

    Pasado mañana, 21 Septiembre, Viernes

    Tiempo Temperatura Precipitaciones Viento Presión Humedad
    00:00 +20°C° 0 mm 1 mps 759 mmHg 61%
    01:00 +20°C° 0 mm 1 mps 759 mmHg 63%
    02:00 +19°C° 0 mm 1 mps 759 mmHg 66%
    03:00 +19°C° 0 mm 1 mps 759 mmHg 67%
    04:00 +19°C° 0 mm 1 mps 759 mmHg 68%
    05:00 +18°C° 0 mm 1 mps 759 mmHg 69%
    06:00 +20°C° 0 mm 1 mps 759 mmHg 66%
    07:00 +21°C° 0 mm 1 mps 759 mmHg 62%
    08:00 +22°C° 0 mm 1 mps 759 mmHg 58%
    09:00 +24°C° 0 mm 1 mps 759 mmHg 50%
    10:00 +26°C° 0 mm 2 mps 759 mmHg 43%
    11:00 +28°C° 0 mm 2 mps 759 mmHg 35%
    12:00 +29°C° 0 mm 2 mps 759 mmHg 32%
    13:00 +30°C° 0 mm 2 mps 759 mmHg 29%
    14:00 +31°C° 0 mm 2 mps 758 mmHg 27%
    15:00 +31°C° 0 mm 2 mps 758 mmHg 28%
    16:00 +30°C° 0 mm 2 mps 758 mmHg 29%
    17:00 +30°C° 0 mm 2 mps 757 mmHg 30%
    18:00 +28°C° 0 mm 2 mps 758 mmHg 34%
    19:00 +26°C° 0 mm 2 mps 758 mmHg 37%
    20:00 +24°C° 0 mm 2 mps 758 mmHg 41%
    21:00 +24°C° 0 mm 2 mps 758 mmHg 44%
    22:00 +23°C° 0 mm 2 mps 758 mmHg 48%
    23:00 +21°C° 0 mm 2 mps 758 mmHg 52%

    22 Septiembre, Sábado

    Tiempo Temperatura Precipitaciones Viento Presión Humedad
    00:00 +21°C° 0 mm 2 mps 758 mmHg 54%
    01:00 +21°C° 0 mm 1 mps 758 mmHg 57%
    02:00 +21°C° 0 mm 1 mps 758 mmHg 59%
    03:00 +20°C° 0 mm 1 mps 758 mmHg 61%
    04:00 +20°C° 0 mm 1 mps 758 mmHg 63%
    05:00 +19°C° 0 mm 1 mps 758 mmHg 64%
    06:00 +21°C° 0 mm 1 mps 758 mmHg 61%
    07:00 +22°C° 0 mm 1 mps 758 mmHg 57%
    08:00 +23°C° 0 mm 1 mps 758 mmHg 53%
    09:00 +25°C° 0 mm 1 mps 758 mmHg 47%
    10:00 +27°C° 0 mm 1 mps 758 mmHg 40%
    11:00 +30°C° 0 mm 1 mps 758 mmHg 33%
    12:00 +29°C° 0 mm 0 mps 757 mmHg 31%
    13:00 +30°C° 0 mm 0 mps 757 mmHg 28%
    14:00 +31°C° 0 mm 0 mps 757 mmHg 25%
    15:00 +32°C° 0 mm 1 mps 756 mmHg 26%
    16:00 +32°C° 0 mm 1 mps 756 mmHg 27%
    17:00 +31°C° 0 mm 1 mps 756 mmHg 27%
    18:00 +29°C° 0 mm 1 mps 756 mmHg 31%
    19:00 +27°C° 0 mm 1 mps 756 mmHg 34%
    20:00 +25°C° 0 mm 1 mps 757 mmHg 37%
    21:00 +25°C° 0 mm 1 mps 757 mmHg 38%
    22:00 +24°C° 0 mm 1 mps 757 mmHg 40%
    23:00 +24°C° 0 mm 1 mps 757 mmHg 41%

    23 Septiembre, Domingo

    Tiempo Temperatura Precipitaciones Viento Presión Humedad
    00:00 +23°C° 0 mm 1 mps 757 mmHg 42%
    01:00 +23°C° 0 mm 2 mps 757 mmHg 43%
    02:00 +21°C° 0 mm 2 mps 756 mmHg 45%
    03:00 +21°C° 0 mm 2 mps 757 mmHg 45%
    04:00 +21°C° 0 mm 3 mps 757 mmHg 46%
    05:00 +21°C° 0 mm 3 mps 757 mmHg 47%
    06:00 +21°C° 0 mm 4 mps 757 mmHg 50%
    07:00 +21°C° 0 mm 5 mps 758 mmHg 53%
    08:00 +21°C° 0 mm 6 mps 758 mmHg 55%
    09:00 +22°C° 0 mm 6 mps 759 mmHg 54%
    10:00 +22°C° 0 mm 5 mps 759 mmHg 53%
    11:00 +22°C° 0 mm 5 mps 759 mmHg 52%
    12:00 +25°C° 0 mm 5 mps 759 mmHg 48%
    13:00 +26°C° 0 mm 4 mps 759 mmHg 44%
    14:00 +27°C° 0 mm 4 mps 759 mmHg 41%
    15:00 +27°C° 0 mm 4 mps 759 mmHg 41%
    16:00 +26°C° 0 mm 4 mps 759 mmHg 41%
    17:00 +26°C° 0 mm 4 mps 759 mmHg 41%
    18:00 +23°C° 0 mm 4 mps 759 mmHg 45%
    19:00 +21°C° 0 mm 4 mps 760 mmHg 50%
    20:00 +19°C° 0 mm 4 mps 760 mmHg 54%
    21:00 +19°C° 0 mm 3 mps 760 mmHg 56%
    22:00 +18°C° 0 mm 3 mps 760 mmHg 58%
    23:00 +18°C° 0 mm 3 mps 760 mmHg 59%

    24 Septiembre, Lunes

    Tiempo Temperatura Precipitaciones Viento Presión Humedad
    00:00 +17°C° 0 mm 3 mps 760 mmHg 61%
    01:00 +17°C° 0 mm 2 mps 760 mmHg 63%
    02:00 +17°C° 0 mm 2 mps 759 mmHg 65%
    03:00 +16°C° 0 mm 2 mps 759 mmHg 67%
    04:00 +16°C° 0 mm 2 mps 758 mmHg 69%
    05:00 +16°C° 0 mm 2 mps 758 mmHg 71%
    06:00 +17°C° 0 mm 3 mps 757 mmHg 67%
    07:00 +19°C° 0 mm 3 mps 757 mmHg 64%
    08:00 +20°C° 0 mm 3 mps 756 mmHg 61%
    09:00 +22°C° 0 mm 3 mps 756 mmHg 54%
    10:00 +26°C° 0 mm 3 mps 755 mmHg 48%
    11:00 +28°C° 0 mm 3 mps 755 mmHg 41%
    12:00 +30°C° 0 mm 3 mps 754 mmHg 38%
    13:00 +31°C° 0 mm 3 mps 753 mmHg 35%
    14:00 +33°C° 0 mm 3 mps 752 mmHg 31%
    15:00 +33°C° 0 mm 3 mps 751 mmHg 32%
    16:00 +33°C° 0 mm 3 mps 751 mmHg 33%
    17:00 +33°C° 0 mm 3 mps 750 mmHg 34%
    18:00 +30°C° 0 mm 3 mps 751 mmHg 38%
    19:00 +28°C° 0 mm 3 mps 752 mmHg 42%
    20:00 +26°C° 0 mm 4 mps 752 mmHg 45%
    21:00 +23°C° 0.1 mm 5 mps 753 mmHg 47%
    22:00 +22°C° 0.1 mm 7 mps 754 mmHg 49%
    23:00 +20°C° 0.1 mm 8 mps 755 mmHg 50%
    Mostrar más